TimeCST,TemperatureF,Dew PointF,Humidity,Sea Level PressureIn,VisibilityMPH,Wind Direction,Wind SpeedMPH,Gust SpeedMPH,PrecipitationIn,Events,Conditions,WindDirDegrees,DateUTC
12:53 AM,53.1,53.1,100,29.93,0.2,ESE,3.5,-,N/A,Fog,Fog,120,2012-12-07 06:53:00
1:25 AM,53.6,53.6,100,29.92,0.5,SE,5.8,-,N/A,Fog,Fog,130,2012-12-07 07:25:00
1:38 AM,53.6,53.6,100,29.91,1.2,SSE,4.6,-,N/A,,Overcast,150,2012-12-07 07:38:00
1:53 AM,54.0,53.1,97,29.92,1.2,SSE,5.8,-,N/A,,Overcast,150,2012-12-07 07:53:00
2:23 AM,53.6,53.6,100,29.92,2.0,SE,4.6,-,N/A,,Overcast,130,2012-12-07 08:23:00
2:50 AM,53.6,53.6,100,29.91,1.5,SE,3.5,-,N/A,,Overcast,140,2012-12-07 08:50:00
2:53 AM,54.0,53.1,97,29.91,1.2,SE,3.5,-,N/A,,Overcast,130,2012-12-07 08:53:00
3:05 AM,53.6,53.6,100,29.91,0.5,Calm,Calm,-,N/A,Fog,Fog,0,2012-12-07 09:05:00
3:35 AM,53.6,53.6,100,29.90,0.2,Calm,Calm,-,N/A,Fog,Fog,0,2012-12-07 09:35:00
3:53 AM,54.0,53.1,97,29.90,0.2,Calm,Calm,-,N/A,Fog,Fog,0,2012-12-07 09:53:00
4:53 AM,54.0,53.1,97,29.90,0.2,ESE,3.5,-,N/A,Fog,Fog,120,2012-12-07 10:53:00
5:53 AM,54.0,53.1,97,29.90,0.2,Calm,Calm,-,0.00,Fog,Fog,0,2012-12-07 11:53:00
6:03 AM,53.6,53.6,100,29.90,0.5,SSE,3.5,-,N/A,Fog,Fog,160,2012-12-07 12:03:00
6:20 AM,53.6,53.6,100,29.90,0.2,SSE,4.6,-,N/A,Fog,Fog,150,2012-12-07 12:20:00
6:53 AM,54.0,54.0,100,29.90,0.2,South,4.6,-,N/A,Fog,Fog,170,2012-12-07 12:53:00
7:53 AM,55.0,55.0,100,29.90,0.2,Calm,Calm,-,N/A,Fog,Fog,0,2012-12-07 13:53:00
8:26 AM,55.4,55.4,100,29.90,0.8,SSE,3.5,-,N/A,,Overcast,150,2012-12-07 14:26:00
8:41 AM,55.4,55.4,100,29.90,2.0,South,5.8,-,N/A,,Overcast,190,2012-12-07 14:41:00
8:53 AM,55.9,55.0,97,29.91,3.0,SSW,4.6,-,N/A,,Overcast,210,2012-12-07 14:53:00
9:53 AM,57.0,55.9,96,29.91,4.0,South,6.9,-,N/A,,Overcast,190,2012-12-07 15:53:00
10:48 AM,57.2,55.4,94,29.89,6.0,SW,9.2,-,N/A,,Overcast,220,2012-12-07 16:48:00
10:53 AM,57.9,55.9,93,29.89,7.0,SSW,9.2,-,N/A,,Overcast,210,2012-12-07 16:53:00
11:11 AM,59.0,55.4,88,29.89,8.0,SW,9.2,-,N/A,,Mostly Cloudy,220,2012-12-07 17:11:00
11:24 AM,59.0,55.4,88,29.88,8.0,SSW,9.2,-,N/A,,Overcast,200,2012-12-07 17:24:00
11:53 AM,59.0,55.0,87,29.86,8.0,SSW,5.8,-,N/A,,Overcast,200,2012-12-07 17:53:00
12:11 PM,60.8,55.4,82,29.86,8.0,WSW,6.9,-,N/A,,Overcast,250,2012-12-07 18:11:00
12:19 PM,60.8,53.6,77,29.86,9.0,WSW,8.1,-,N/A,,Overcast,240,2012-12-07 18:19:00
12:46 PM,60.8,53.6,77,29.85,10.0,WSW,9.2,-,N/A,,Mostly Cloudy,250,2012-12-07 18:46:00
12:53 PM,61.0,54.0,78,29.84,10.0,WSW,6.9,-,N/A,,Mostly Cloudy,240,2012-12-07 18:53:00
1:44 PM,62.6,53.6,72,29.83,10.0,WSW,8.1,-,N/A,,Overcast,240,2012-12-07 19:44:00
1:53 PM,62.1,53.1,72,29.82,10.0,WSW,12.7,-,N/A,,Overcast,240,2012-12-07 19:53:00
2:26 PM,62.6,53.6,72,29.83,10.0,SW,11.5,-,N/A,,Overcast,230,2012-12-07 20:26:00
2:53 PM,62.1,52.0,70,29.83,10.0,SW,12.7,-,N/A,,Mostly Cloudy,230,2012-12-07 20:53:00
3:53 PM,62.1,52.0,70,29.83,10.0,SSW,10.4,-,N/A,,Scattered Clouds,200,2012-12-07 21:53:00
4:53 PM,59.0,53.1,81,29.84,10.0,South,3.5,-,N/A,,Overcast,190,2012-12-07 22:53:00
5:53 PM,59.0,53.1,81,29.85,10.0,SSW,5.8,-,N/A,,Overcast,210,2012-12-07 23:53:00
6:53 PM,59.0,52.0,78,29.86,10.0,SSW,4.6,-,N/A,,Overcast,200,2012-12-08 00:53:00
7:53 PM,57.9,52.0,81,29.86,10.0,South,5.8,-,N/A,,Overcast,180,2012-12-08 01:53:00
8:53 PM,57.9,52.0,81,29.87,10.0,Calm,Calm,-,N/A,,Overcast,0,2012-12-08 02:53:00
9:53 PM,55.9,52.0,87,29.86,8.0,Calm,Calm,-,N/A,,Overcast,0,2012-12-08 03:53:00
10:53 PM,57.9,53.1,84,29.85,9.0,SSW,5.8,-,N/A,,Overcast,200,2012-12-08 04:53:00
11:28 PM,57.2,53.6,88,29.86,9.0,SSW,6.9,-,N/A,,Overcast,200,2012-12-08 05:28:00
11:53 PM,57.9,53.1,84,29.85,9.0,SSW,4.6,-,N/A,,Overcast,200,2012-12-08 05:53:00